Flag for Canada Weather past 2 weeks in Sarnia, Ontario, Canada

Now
64 °F

Broken clouds.


Feels Like: 64 °F
Forecast: 58 / 72 °F
Wind: 10 mph from North

Location: Sarnia Airport

Current Time: Aug 5, 2015 at 9:15:40 AM

Latest Report: Aug 5, 2015 at 8:00 AM


Visibility: 9 mi

Pressure: 30.02 "Hg

Humidity: 88%

Dew point: 61 °F

Location of SarniaLocation

Historic Weather in Sarnia — Graph

°F

Sarnia temperature yesterday

Maximum temperature yesterday: 77 °F (at 12:00 PM)
Minimum temperature yesterday: 61 °F (at 5:00 AM)
Average temperature yesterday: 68 °F

Past Weeks' High & Low Weather Summary

 TemperatureHumidityPressure
High90 °F (Jul 29, 3:00 PM)100% (Jul 24, 6:00 AM)30.05 "Hg (Jul 24, 6:00 AM)
Low57 °F (Jul 22, 6:00 AM)33% (Aug 2, 6:00 PM)29.60 "Hg (Aug 2, 7:00 PM)
Average72 °F71%29.90 "Hg
* Reported Jul 21 8:00 AM — Aug 5 8:00 AM, Sarnia, Weather by CustomWeather, © 2015

Note: Actual official high and low records may vary slightly from our data, if they occured in-between our weather recording intervals... More about our weather records

Advertising

Sarnia weather history for previous 24 hours

 ConditionsComfort  
Time TempWeatherWind HumidityBarometerVisibility
8:00 AM
Wed, Aug 5
64 °FBroken clouds.10 mph88%30.02 "Hg9 mi
7:00 AM61 °FClear.7 mph94%30.01 "Hg9 mi
6:03 AM61 °FPassing clouds.5 mph100%30.00 "Hg9 mi
5:00 AM61 °FClear.5 mph94%29.98 "Hg9 mi
4:00 AM61 °FPassing clouds.3 mph94%29.98 "Hg9 mi
3:00 AM61 °FClear.5 mph94%29.97 "Hg9 mi
2:00 AM63 °FPassing clouds.No wind94%29.97 "Hg9 mi
1:00 AM63 °FPassing clouds.No wind94%29.98 "Hg9 mi
12:00 AM64 °FOvercast.No wind88%29.98 "Hg9 mi
11:00 PM
Tue, Aug 4
64 °FMostly cloudy.3 mph88%29.96 "Hg9 mi
10:00 PM64 °FPassing clouds.3 mph88%29.94 "Hg9 mi
9:00 PM64 °FMore clouds than sun.No wind94%29.93 "Hg9 mi
8:00 PM66 °FLight rain. Cloudy.6 mph88%29.92 "Hg9 mi
7:00 PM68 °FPartly sunny.8 mph78%29.92 "Hg9 mi
6:00 PM72 °FBroken clouds.10 mph73%29.91 "Hg9 mi
5:00 PM75 °FCloudy.N/A54%29.89 "Hg9 mi
4:00 PM75 °FBroken clouds.10 mph50%29.89 "Hg9 mi
3:00 PM77 °FScattered clouds.13 mph47%29.88 "Hg9 mi
2:00 PM77 °FScattered clouds.14 mph51%29.88 "Hg9 mi
1:00 PM75 °FPartly sunny.14 mph50%29.88 "Hg9 mi
12:00 PM77 °FPassing clouds.13 mph51%29.89 "Hg9 mi
11:00 AM73 °FSunny.7 mph57%29.90 "Hg9 mi
10:00 AM72 °FSunny.6 mph61%29.90 "Hg9 mi
9:00 AM68 °FSunny.6 mph69%29.89 "Hg9 mi
Weather by CustomWeather, © 2015

See weather overviewHow to use our weather pages